"Pseudo-MPEC" for C4V28F2

Created 2021 Mar 4 16:07:03 UT using Find_Orb

Click here for an explanation of pseudo-MPECs

 
 Astrometry: 
     C4V28F2  C2021 01 23sJF7aV6U5@+k6:q(p148,+.A_sXBv:nI:`JP5_p@P`4i^g#vsb_oF51
     C4V28F2  C2021 01 23H2'D.u8W9,qsVGb\F$JHm.iK+=3Df5Vm4BO53F/CmK_1.,jX.7gRF51
     C4V28F2  C2021 01 23bLIPJ5e\yx$ZM9mM6@(P,66PHxgiPPoyZ?hyyJSwN3$BQxpLF2p6F51
     C4V28F2  C2021 02 07.43217613 07 57.40 +03 02 12.3    ~27Db 20.86GVNEOCPG96
     C4V28F2  C2021 02 07.43728113 07 57.11 +03 02 15.0    ~27Db 21.42GVNEOCPG96
     C4V28F2  C2021 02 07.44238513 07 56.76 +03 02 17.4    ~27Db 20.85GVNEOCPG96
     C4V28F2  C2021 02 07.45218313 07 56.07 +03 02 21.5    ~27Dq 21.37GVNEOCPG96
     C4V28F2  C2021 02 07.46035513 07 55.55 +03 02 24.8    ~27Dq 20.76GVNEOCPG96
     C4V28F2  C2021 02 07.46819013 07 55.02 +03 02 28.5    ~27Dq 21.16GVNEOCPG96
     C4V28F2  C2021 02 07.47616913 07 54.48 +03 02 32.4    ~27Dq 20.94GVNEOCPG96
     C4V28F2  C2021 02 07.53292913 07 50.69 +03 02 57.2    ~27Dq 20.91GVNEOCPG96
     C4V28F2  C2021 02 07.54174913 07 50.07 +03 03 01.1    ~27Dq 21.23GVNEOCPG96
     C4V28F2  C2021 02 07.55022113 07 49.52 +03 03 05.1    ~27Dq 20.66GVNEOCPG96
     C4V28F2  C2021 02 07bs5Ob?YXsmwamQ2FN:Y-6_^i/dIVP@l8m[BU!UgtI?[pGbDAQRZjF52
     C4V28F2  C2021 02 07Ai.ky_eFQX'sg()URt8nD_0B!+N.eOTt.e9Tqq[j_dMn@%BXMfr]F52
     C4V28F2  C2021 02 07.Mh\[-Te[9JS$q$_=#i1DoSVvsN4(VkdsVTJP.#.'mBEq10oZdKWF52
     C4V28F2  C2021 02 077k?0G^!11X7e\As_OS@wu?HaP=Anhx+BC%Rk=TNfnmHi@ast[pI!F52
     C4V28F2 KC2021 02 08.45170913 06 49.00 +03 09 49.6    ~28BM 20.73GVNEOCPI52
     C4V28F2 KC2021 02 08.45478113 06 48.76 +03 09 50.9    ~28BM 21.25GVNEOCPI52
     C4V28F2 KC2021 02 08.45785213 06 48.62 +03 09 51.8    ~28BM       VNEOCPI52
     C4V28F2 KC2021 02 09.52212413 05 35.14 +03 17 58.8    ~29Cq 21.18GVNEOCPI52
     C4V28F2 KC2021 02 09.52542013 05 34.85 +03 18 00.6    ~29Cq 21.01GVNEOCPI52
     C4V28F2 KC2021 02 09.52871613 05 34.60 +03 18 01.8    ~29Cq 20.62GVNEOCPI52
     C4V28F2 |C2021 02 110+5RS#*8FN=RsZ,ObLCAstrometryUNgv5`pq0?L(*W=60@t@@suH06
     C4V28F2 |C2021 02 11TYK=`Hr4iH$Ou98!AvX82BY`DScL^s`cjF2Z!e^+]3xu4@KFX]BkH06
     C4V28F2 KC2021 02 11.47717013 03 14.93 +03 33 20.9    ~2BC7 20.89GVNEOCPI52
     C4V28F2 KC2021 02 11.48221713 03 14.56 +03 33 23.1    ~2BC7 20.72GVNEOCPI52
     C4V28F2 KC2021 02 11.48473913 03 14.36 +03 33 24.4    ~2BC7 21.11GVNEOCPI52
     C4V28F2 |C2021 02 13DAEa_KE2ec1OsF*^^iALhq:bBa@Z]fX$e?djPV[-A0A;d*_,rVFZ807
     C4V28F2 |C2021 02 13SaU3EuE#`AP\r`rY((_IC#)(b5s65LQj9P?8T%Vu/lGpdRm?!jB_807
     C4V28F2 |C2021 02 13r_NM2db8p,QFKCT*y*9EQc02;WQq!NVtg*GyIc7soB?teN$Xqcc[807
     C4V28F2 KC2021 02 13.42405213 00 48.59 +03 49 12.4    ~2DBM 21.80GVNEOCPI52
     C4V28F2 KC2021 02 13.42978513 00 48.19 +03 49 15.4    ~2DBM 20.27GVNEOCPI52
     C4V28F2 KC2021 02 13.44376513 00 47.05 +03 49 22.9    ~2DBM 20.16GVNEOCPI52
     C4V28F2 bC2021 02 14MOP^[G`/W4v[O?redacted;xf8mb1AM_yE=pb[+60\Nk]4ToH*1]L01
     C4V28F2 bC2021 02 14YP[yh(aSIh930svkXfVn:GR)!Q`2i@J?*-[]0IP3]a`3,yb3md?vL01
     C4V28F2 bC2021 02 14@@(RqFnu@R\!im$ta[@NA^'*qOH6Kh0-HXo0.ijD`]HZ=do]86vtL01
     C4V28F2  C2021 02 16tmIB^NdH\3en\O%lmI,*qf5[_NK5F]KBAyaC5t.*0^,5*y^6*/,EF51
     C4V28F2  C2021 02 167EM[Ob_9SF\itEs^)%s3Y1#=tY#spF27OO/)hH]h_*ygXMTk8WbfF51
     C4V28F2  C2021 02 166e`,h`rY6!isikV1*6M4i'UT/mFfV3usb=3[w#6fwZclick1-kDsF51
     C4V28F2  C2021 02 16*3`5/o]U\mh8h;!,O6],L#),47R*5K5H%u84DOjZB2s0(heretp1F51
     C4V28F2 KC2021 02 19.46380612 52 30.68 +04 41 53.8    ~2JBb 21.23GVNEOCPI52
     C4V28F2 KC2021 02 19.46654212 52 30.40 +04 41 56.3    ~2JBb 20.55GVNEOCPI52
     C4V28F2 KC2021 02 19.46851412 52 30.18 +04 41 57.0    ~2JBb 20.27GVNEOCPI52
     C4V28F2 KC2021 02 20.35275412 51 12.01 +04 50 03.2    ~2K97       VNEOCPI52
     C4V28F2 KC2021 02 20.35634212 51 11.68 +04 50 05.7    ~2K97       VNEOCPI52
     C4V28F2 KC2021 02 20.36078212 51 11.26 +04 50 08.7    ~2K97       VNEOCPI52
     C4V28F2 KC2021 02 20.36437212 51 11.01 +04 50 10.2    ~2K97 20.49GVNEOCPI52
     C4V28F2 |C2021 02 21d-=6dGwy8)]MTrOYGAHlp8Ll$y#,MMq755(y6YR(b6/p.^)0ZQ*C807
     C4V28F2 |C2021 02 21(wH(T.U[GpoOp_bgJ8v@!4#1nUgSxoPQ^ca?C.687`wyb#!:wV(g807
     C4V28F2 |C2021 02 21QUT*.#4bforUrK7n$M`;g7nPUqQInaRHN)X\gf_!(:sT0048c)%Q807
     C4V28F2 KC2021 02 22/VH:Yp!1sO:Qe'qK\y?U-Pexplanation@02skMS!]V;=LqNyFCPN51
     C4V28F2 KC2021 02 222$G7a!Vp.`6r%k'nsZIV6ds=5H\EGHIH90Io'20q*itPJBI*kYu/N51
     C4V28F2 KC2021 02 22SlEUb[c)#2vh[EoGU@RD:\n\_S'(7KN\j=ZT^fvL!uuIQ;UO0kxFN51
     C4V28F2 KC2021 02 22P+NH3?t;!T+r59rM%HS[CN^NCmX-^VTha\jN!dCV?NN.B[G4\y@NN51
     C4V28F2 KC2021 02 2293,GKUmW7^+lNHAVPORPdRR6QnWY.D?UJ5d=l!UQGXYoyjE)BOGvN51
     C4V28F2 KC2021 02 22[3fHjFVh?e8UOVG*1SQC2wyE('Ac'TPPxv`goL%JU5L:!%ED7AnyN51
     C4V28F2 KC2021 02 22!9()ZEdiu:gK!.A'4E6#KP$*v#vvDjOF)1)=Wm`,b(X=6yDJx4(JN51
     C4V28F2 KC2021 02 23.33617712 46 37.21 +05 18 11.9    ~2N8b 21.05GVNEOCPI52
     C4V28F2 KC2021 02 23.34012812 46 36.80 +05 18 14.3    ~2N8b 20.78GVNEOCPI52
     C4V28F2 KC2021 02 23.34210412 46 36.73 +05 18 15.8    ~2N8b       VNEOCPI52
     C4V28F2 KC2021 03 04.29578112 31 21.78 +06 48 09.5    ~347b 18.93GVNEOCPI52
     C4V28F2 KC2021 03 04.29830012 31 21.65 +06 48 10.2    ~347b 19.16GVNEOCPI52
     C4V28F2 KC2021 03 04.30081712 31 21.58 +06 48 09.6    ~347b 19.27GVNEOCPI52

Station data:
(807) Cerro Tololo Observatory, La Serena  (S30.169136 W70.805900)  Chile.
(F51) Pan-STARRS 1, Haleakala  (N20.707235 W156.255910)  US/Hawaii.
   Observers N. Primak, A. Schultz, S. Watters, J. Thiel, T. Goggia. Measurer
   PS1 Science Consortium. 1.8-m Ritchey-Chrétien + CCD.
(F52) Pan-STARRS 2, Haleakala  (N20.707384 W156.255910)  US/Hawaii. 1.8-m
   Ritchey-Chrétien + CCD.
(G96) Mt. Lemmon Survey  (N32.442754 W110.788720)  US/Arizona.  Observers T.
   A. Pruyne, B. M. Africano, E. J. Christensen, G. A. Farneth, D. C. Fuls,
   A. R. Gibbs, A. D. Grauer, H. Gröller, J. A. Johnson, R. A. Kowalski, S.
   M. Larson, G. J. Leonard, D. Rankin, R. L. Seaman, F. C. Shelly. 1.5-m
   reflector + 10K CCD.
(H06) RAS Observatory, Mayhill  (N32.903325 W105.528700)  US/New
   Mexico.  Observers E. Guido, G. Sostero, V. Gonano, L. Donato.
(I52) Steward Observatory, Mt. Lemmon Station  (N32.442547 W110.788920)
   US/Arizona.  Observers T. A. Pruyne, B. M. Africano, E. J. Christensen, G.
   A. Farneth, D. C. Fuls, A. R. Gibbs, A. D. Grauer, H. Gröller, J. A.
   Johnson, R. A. Kowalski, S. M. Larson, G. J. Leonard, D. Rankin, R. L.
   Seaman, F. C. Shelly. 1.0-m reflector + CCD.
(L01) Višnjan Observatory, Tičan  (N45.290900 E13.749300)  Croatia.
   Observers K. Korlević, E. Pettarin. Measurer E. Pettarin. 1.0-m f/2.9
   reflector + CCD.
(N51) GROWTH India Telescope, IAO, Hanle  (N32.779244 E78.964610)  India.

Orbital elements:  C4V28F2
   Perihelion 2021 Nov 14.065371 +/- 0.523182 TT =  1:34:08 (JD 2459532.565371)
Epoch 2021 Mar  4.0 TT = JDT 2459277.5                        AutoNEOCP
M 359.98774152 +/- 0.0294609        (J2000 ecliptic)
n   0.00004806 +/- 7.67922e-5       Peri.  203.68495 +/- 0.0865187
a 749.225795 +/- 840.031            Node   332.18237 +/- 0.0190639
e   0.9956352 +/- 0.00469287        Incl.  164.61321 +/- 0.0088410
P  20507                   H 14.8   G  0.15   U  6.4  
q 3.27015735 +/- 0.000983367    Q 1495.18143 +/- 481.411
From 64 observations 2021 Jan. 23-Mar. 4; mean residual 0".60
Residuals in arcseconds: 
210123 F51  .14-  .26-    210209 I52  .29-  .25-    210220 I52  1.1+  1.3-    
210123 F51  .14+  .11+    210211 H06  .52-  .03-    210220 I52  1.0+  .75-    
210123 F51  .00   .01-    210211 H06  .11-  .05+    210220 I52  .77+  .22-    
210207 G96  .62-  .32-    210211 I52  .41-  .17+    210220 I52  1.9+  .71-    
210207 G96  .16+  .12+    210211 I52  .34-  .05-    210221 807  .41-  .48-    
210207 G96  .05+  .25+    210211 I52  .52-  .04+    210221 807  .33-  .35-    
210207 G96  .44-  .01+    210213 807  .15+  .20+    210221 807  .06-  .14-    
210207 G96  .01-  .31-    210213 807  .59+  .45+    210222 N51  .69-  .37+    
210207 G96  .07-  .09-    210213 807  .03-  .61+    210222 N51  .77-  .34+    
210207 G96  .13-  .27+    210213 I52  .22+  .52-    210222 N51  .77-  .35+    
210207 G96  .24+  .11-    210213 I52  .92+  .38-    210222 N51  .74-  .31+    
210207 G96  .16-  .12-    210213 I52  .16+  .16+    210222 N51  1.1-  .10+    
210207 G96  .13+  .12+    210214 L01  .08+  .35+    210222 N51  .75-  .54+    
210207 F52  .12+  .30-    210214 L01  .23-  .42+    210222 N51  .82-  .14-    
210207 F52  .08+  .12-    210214 L01  .06+  .50+    210223 I52  .03+  .26-    
210207 F52  .49-  .39+    210216 F51  .01+  .00     210223 I52  .45-  .14-    
210207 F52  .02-  .29-    210216 F51  .10-  .02-    210223 I52  1.3+  .22+    
210208 I52  .16+  .37+    210216 F51  .01+  .06+    210304 I52  2.4-  1.4+    
210208 I52  .26-  .28+    210216 F51  .09-  .01-    210304 I52  .17-  .55+    
210208 I52  .81+  .21-    210219 I52  .44+  .48-    210304 I52  2.9+  1.6-    
210209 I52  .81+  .20-    210219 I52  .12-  .52+    
210209 I52  .04-  .07+    210219 I52  .79-  .14+    

Ephemerides (geocentric):
Date (UTC) HH   RA              Dec         delta   r     elong  mag " sig PA
---- -- -- --  -------------   -----------  ------ ------ -----  --- ---- ---
2021 03 04 16  12 30 41.242   +06 52 00.88  3.1018 4.0370 157.7 20.7 .199 150
2021 03 04 17  12 30 36.666   +06 52 26.92  3.1012 4.0368 157.8 20.7 .201 150
2021 03 04 18  12 30 32.088   +06 52 52.97  3.1007 4.0366 157.9 20.7 .204 149
2021 03 04 19  12 30 27.507   +06 53 19.02  3.1002 4.0364 157.9 20.7 .206 149
2021 03 04 20  12 30 22.924   +06 53 45.08  3.0997 4.0362 158.0 20.7 .208 149
2021 03 04 21  12 30 18.338   +06 54 11.15  3.0992 4.0359 158.0 20.7 .211 149
2021 03 04 22  12 30 13.749   +06 54 37.22  3.0987 4.0357 158.1 20.7 .213 148
2021 03 04 23  12 30 09.158   +06 55 03.30  3.0982 4.0355 158.1 20.7 .215 148
2021 03 05 00  12 30 04.565   +06 55 29.39  3.0977 4.0353 158.2 20.7 .218 148
